01:08
Airports
History
Links
Donate
Help keep this website running!
PayPal
Bitcoin
This page is community maintained. The information is intended for PC simulator navigation or reference.
Always use approved charts for navigation.
HI32
Pepeekeo Airstrip
Pepeekeo Airstrip (HI32)
Pepeekeo, Hawaii, United States (96783)
(U)
Lat/Lng:19° 50' 41.04" N / 155° 6' 48.03" W
19.844732 / -155.113343
Elevation:675'ft / 206mMSL
ID / ICAO:HI32
Runways:1
Longest:05-23
Asphalt 612m / 2,006ft
Nearby Weather00:53 GMT 2017-11-18
Nearby weather at PHTO, Hilo Intl located 9.6 nautical miles from HI32
Altimeter: 29.87
Visibility: 10.0 statute miles
Wind: 7 knots (from 040°)
Temp: 25°c / 77°f
Humidity: 61.2%

METAR: PHTO 180053Z 04007KT 10SM FEW065 25/17 A2987 RMK AO2 SLP112 T02500167

(Powered by phpweather)
Nearby VORs <50NM
Nearby NDBs
Runway 05 / 23
Dimensions:611.5 x 7.6m 2006' x 25'ft
Surface:Asphalt
Runway 05 [A]Runway 23 [B]
Heading:055°TH 235°TH
Lat:
Lng:
19° 50' 35.51"N
155° 6' 56.74"W
19° 50' 46.56"N
155° 6' 39.33"W
User Notes and Comments
19° 50' 41.04" N / 155° 6' 48.03" W
Distance To
Airport ID:
Nearby Airports
(U) Peleau 5.2 NM
HI02 NW 319°
(U) Mauna Kea-Honolii 5.8 NM
HI31 SSW 196°
(C) Hilo Intl 9.6 NM
PHTO ( WX ) SSE 153°
(R) Mountain View Airstrip 20.5 NM
HI23 S 179°
(R) Upper Paauilo Airstrip 21.9 NM
HI27 NW 305°
(R) Bradshaw Army Airfield 29.2 NM
PHSF ( WX ) WSW 258°
(R) Honokaa Airstrip 30.2 NM
HI05 WNW 303°
VFR Chart
Flight Planning at SkyVector.com